Wetterdaten: Woche 15.01.18 - 21.01.18 (KW3)
Datum Zeit Temp. I. Temp. A. Feuchte I. Feuchte A. Luftdruck Regen Wind Richtung Sonnenschein UV Solar Taupunkt Windchill Windben
15.01.2018 00:00 22,6 C -0,8 C 62 % 87 % 1024,6 hPa 0,0 l/m 2,5 km/h (1 Bft) O-SO 0,00 h 0,0 UV-I 0 W/m -2,7 C -0,9 C 5,2 km/h (1 Bft)
15.01.2018 01:00 22,5 C -0,9 C 63 % 88 % 1024,1 hPa 0,0 l/m 2,7 km/h (1 Bft) SO 0,00 h 0,0 UV-I 0 W/m -2,6 C -0,9 C 5,2 km/h (1 Bft)
15.01.2018 02:00 22,4 C -1,0 C 63 % 89 % 1023,9 hPa 0,0 l/m 2,5 km/h (1 Bft) O-SO 0,00 h 0,0 UV-I 0 W/m -2,6 C -1,0 C 4,9 km/h (1 Bft)
15.01.2018 03:00 22,4 C -0,9 C 63 % 89 % 1023,6 hPa 0,0 l/m 2,1 km/h (1 Bft) O-SO 0,00 h 0,0 UV-I 0 W/m -2,5 C -0,9 C 4,5 km/h (1 Bft)
15.01.2018 04:00 22,4 C -1,3 C 63 % 89 % 1023,0 hPa 0,0 l/m 4,1 km/h (1 Bft) O-SO 0,00 h 0,0 UV-I 0 W/m -2,8 C -1,3 C 7,4 km/h (2 Bft)
15.01.2018 05:00 22,3 C -1,6 C 64 % 90 % 1022,8 hPa 0,0 l/m 3,5 km/h (1 Bft) O-SO 0,00 h 0,0 UV-I 0 W/m -3,1 C -1,7 C 6,6 km/h (2 Bft)
15.01.2018 06:00 22,2 C -1,6 C 64 % 90 % 1022,4 hPa 0,0 l/m 3,8 km/h (1 Bft) O-SO 0,00 h 0,0 UV-I 0 W/m -3,0 C -1,7 C 6,6 km/h (2 Bft)
15.01.2018 07:00 22,3 C -1,3 C 63 % 91 % 1022,3 hPa 0,0 l/m 4,1 km/h (1 Bft) SO 0,00 h 0,0 UV-I 0 W/m -2,6 C -1,3 C 6,7 km/h (2 Bft)
15.01.2018 08:00 22,5 C -1,0 C 62 % 89 % 1022,4 hPa 0,0 l/m 7,9 km/h (2 Bft) S-SO 0,00 h 0,0 UV-I 10 W/m -2,6 C -3,1 C 11,9 km/h (2 Bft)
15.01.2018 09:00 22,4 C -0,6 C 55 % 86 % 1022,1 hPa 0,0 l/m 8,4 km/h (2 Bft) SO 0,23 h 0,5 UV-I 80 W/m -2,7 C -2,7 C 13,2 km/h (3 Bft)
15.01.2018 10:00 21,9 C 0,4 C 49 % 82 % 1021,4 hPa 0,0 l/m 6,1 km/h (2 Bft) SO 0,85 h 0,6 UV-I 209 W/m -2,4 C -0,4 C 10,2 km/h (2 Bft)
15.01.2018 11:00 22,6 C 0,6 C 49 % 80 % 1020,6 hPa 0,0 l/m 6,7 km/h (2 Bft) S-SO 0,45 h 0,7 UV-I 152 W/m -2,4 C -0,5 C 10,6 km/h (2 Bft)
15.01.2018 12:00 22,8 C 0,9 C 48 % 79 % 1019,3 hPa 0,0 l/m 6,7 km/h (2 Bft) S-SO 0,18 h 0,7 UV-I 128 W/m -2,4 C -0,2 C 10,7 km/h (2 Bft)
15.01.2018 13:00 22,7 C 1,6 C 48 % 76 % 1018,0 hPa 0,0 l/m 8,8 km/h (2 Bft) S-SO 0,45 h 0,7 UV-I 186 W/m -2,3 C -0,8 C 13,9 km/h (3 Bft)
15.01.2018 14:00 22,8 C 2,1 C 46 % 72 % 1016,7 hPa 0,0 l/m 9,0 km/h (2 Bft) S-SO 0,23 h 0,5 UV-I 134 W/m -2,4 C -0,4 C 14,0 km/h (3 Bft)
15.01.2018 15:00 22,7 C 1,7 C 47 % 74 % 1015,5 hPa 0,0 l/m 7,1 km/h (2 Bft) SO 0,00 h 0,0 UV-I 42 W/m -2,5 C 0,5 C 11,1 km/h (2 Bft)
15.01.2018 16:00 22,6 C 0,9 C 50 % 76 % 1014,3 hPa 0,0 l/m 5,0 km/h (1 Bft) SO 0,00 h 0,0 UV-I 12 W/m -2,8 C 0,5 C 9,2 km/h (2 Bft)
15.01.2018 17:00 22,4 C 0,5 C 52 % 79 % 1013,2 hPa 0,0 l/m 6,0 km/h (2 Bft) SO 0,00 h 0,0 UV-I 0 W/m -2,7 C -0,4 C 10,0 km/h (2 Bft)
15.01.2018 18:00 22,4 C 0,6 C 56 % 79 % 1011,8 hPa 0,0 l/m 6,8 km/h (2 Bft) SO 0,00 h 0,0 UV-I 0 W/m -2,6 C -0,4 C 11,2 km/h (2 Bft)
15.01.2018 19:00 22,4 C 0,7 C 53 % 79 % 1010,9 hPa 0,0 l/m 3,7 km/h (1 Bft) O-SO 0,00 h 0,0 UV-I 0 W/m -2,5 C 0,6 C 7,2 km/h (2 Bft)
15.01.2018 20:00 22,5 C 0,9 C 53 % 79 % 1009,3 hPa 0,0 l/m 6,0 km/h (2 Bft) O-SO 0,00 h 0,0 UV-I 0 W/m -2,3 C 0,2 C 10,5 km/h (2 Bft)
15.01.2018 21:00 22,6 C 1,1 C 53 % 78 % 1008,0 hPa 0,0 l/m 3,2 km/h (1 Bft) O-SO 0,00 h 0,0 UV-I 0 W/m -2,3 C 0,6 C 5,7 km/h (1 Bft)
15.01.2018 22:00 22,6 C 1,5 C 52 % 85 % 1006,8 hPa 0,0 l/m 14,6 km/h (3 Bft) S-SO 0,00 h 0,0 UV-I 0 W/m -0,8 C -4,7 C 22,0 km/h (4 Bft)
15.01.2018 23:00 22,4 C 1,0 C 52 % 93 % 1005,4 hPa 0,4 l/m 15,4 km/h (3 Bft) S-SO 0,00 h 0,0 UV-I 0 W/m -0,0 C -5,8 C 22,2 km/h (4 Bft)
16.01.2018 00:00 22,2 C 1,4 C 53 % 94 % 1003,8 hPa 1,0 l/m 17,6 km/h (3 Bft) S-SO 0,00 h 0,0 UV-I 0 W/m 0,6 C -6,5 C 26,9 km/h (4 Bft)
16.01.2018 01:00 22,0 C 1,2 C 53 % 95 % 1002,5 hPa 1,0 l/m 15,2 km/h (3 Bft) S-SO 0,00 h 0,0 UV-I 0 W/m 0,5 C -5,3 C 23,4 km/h (4 Bft)
16.01.2018 02:00 21,9 C 1,1 C 54 % 95 % 1001,5 hPa 0,6 l/m 15,5 km/h (3 Bft) S-SO 0,00 h 0,0 UV-I 0 W/m 0,4 C -5,7 C 23,1 km/h (4 Bft)
16.01.2018 03:00 21,8 C 0,9 C 55 % 95 % 1000,3 hPa 0,2 l/m 13,9 km/h (3 Bft) S-SO 0,00 h 0,0 UV-I 0 W/m 0,3 C -5,0 C 21,8 km/h (4 Bft)
16.01.2018 04:00 21,7 C 1,2 C 55 % 96 % 999,6 hPa 0,4 l/m 12,2 km/h (2 Bft) S-SO 0,00 h 0,0 UV-I 0 W/m 0,6 C -3,5 C 19,4 km/h (3 Bft)
16.01.2018 05:00 21,7 C 1,8 C 55 % 96 % 998,7 hPa 0,2 l/m 13,6 km/h (3 Bft) S 0,00 h 0,0 UV-I 0 W/m 1,3 C -3,7 C 21,2 km/h (4 Bft)
16.01.2018 06:00 21,7 C 2,1 C 55 % 96 % 998,1 hPa 0,0 l/m 10,8 km/h (2 Bft) S-SO 0,00 h 0,0 UV-I 0 W/m 1,5 C -1,6 C 16,8 km/h (3 Bft)
16.01.2018 07:00 22,0 C 2,3 C 55 % 96 % 997,6 hPa 0,4 l/m 10,8 km/h (2 Bft) S 0,00 h 0,0 UV-I 0 W/m 1,7 C -1,3 C 16,6 km/h (3 Bft)
16.01.2018 08:00 22,1 C 2,5 C 56 % 96 % 997,0 hPa 0,4 l/m 8,8 km/h (2 Bft) S-SO 0,00 h 0,0 UV-I 13 W/m 1,9 C 0,4 C 14,1 km/h (3 Bft)
16.01.2018 09:00 22,1 C 2,8 C 56 % 96 % 996,5 hPa 1,0 l/m 11,6 km/h (2 Bft) S 0,00 h 0,0 UV-I 13 W/m 2,2 C -1,4 C 18,3 km/h (3 Bft)
16.01.2018 10:00 22,1 C 2,7 C 55 % 96 % 996,5 hPa 0,2 l/m 9,9 km/h (2 Bft) S 0,03 h 0,5 UV-I 51 W/m 2,2 C -0,1 C 16,4 km/h (3 Bft)
16.01.2018 11:00 22,2 C 3,2 C 54 % 96 % 996,1 hPa 0,2 l/m 5,9 km/h (2 Bft) S-SW 0,08 h 0,6 UV-I 90 W/m 2,6 C 2,3 C 11,0 km/h (2 Bft)
16.01.2018 12:00 22,3 C 3,9 C 54 % 96 % 995,2 hPa 0,2 l/m 6,3 km/h (2 Bft) S 0,10 h 0,6 UV-I 91 W/m 3,3 C 2,7 C 12,0 km/h (2 Bft)
16.01.2018 13:00 22,5 C 4,4 C 53 % 93 % 994,4 hPa 0,0 l/m 13,0 km/h (3 Bft) SW 0,00 h 0,6 UV-I 83 W/m 3,4 C -0,3 C 21,8 km/h (4 Bft)
16.01.2018 14:00 22,5 C 3,7 C 53 % 93 % 994,0 hPa 1,4 l/m 8,8 km/h (2 Bft) W-SW 0,03 h 0,0 UV-I 49 W/m 2,6 C 1,2 C 15,4 km/h (3 Bft)
16.01.2018 15:00 22,6 C 3,6 C 53 % 93 % 993,8 hPa 0,0 l/m 10,3 km/h (2 Bft) SW 0,02 h 0,0 UV-I 61 W/m 2,5 C 0,4 C 17,8 km/h (3 Bft)
16.01.2018 16:00 22,6 C 2,4 C 53 % 92 % 995,6 hPa 1,0 l/m 10,8 km/h (2 Bft) W 0,00 h 0,0 UV-I 9 W/m 1,2 C -1,0 C 17,2 km/h (3 Bft)
16.01.2018 17:00 22,6 C 1,5 C 54 % 93 % 996,2 hPa 0,2 l/m 8,6 km/h (2 Bft) W 0,00 h 0,0 UV-I 0 W/m 0,5 C -0,7 C 13,8 km/h (3 Bft)
16.01.2018 18:00 22,6 C 0,9 C 54 % 95 % 996,7 hPa 1,0 l/m 4,8 km/h (1 Bft) W-NW 0,00 h 0,0 UV-I 0 W/m 0,1 C 0,6 C 8,8 km/h (2 Bft)
16.01.2018 19:00 22,6 C 0,6 C 54 % 96 % 996,8 hPa 1,0 l/m 2,5 km/h (1 Bft) W 0,00 h 0,0 UV-I 0 W/m 0,0 C 0,6 C 5,0 km/h (1 Bft)
16.01.2018 20:00 22,5 C 0,4 C 55 % 96 % 996,6 hPa 0,2 l/m 1,2 km/h (1 Bft) W 0,00 h 0,0 UV-I 0 W/m -0,1 C 0,4 C 2,9 km/h (1 Bft)
16.01.2018 21:00 22,3 C 0,5 C 56 % 96 % 996,3 hPa 0,8 l/m 0,2 km/h (0 Bft) W 0,00 h 0,0 UV-I 0 W/m -0,0 C 0,5 C 0,5 km/h (0 Bft)
16.01.2018 22:00 22,3 C 0,5 C 56 % 96 % 996,1 hPa 0,2 l/m 0,0 km/h (0 Bft) N 0,00 h 0,0 UV-I 0 W/m -0,0 C 0,5 C 0,0 km/h (0 Bft)
16.01.2018 23:00 22,4 C 0,6 C 57 % 96 % 996,3 hPa 0,2 l/m 0,0 km/h (0 Bft) N 0,00 h 0,0 UV-I 0 W/m 0,0 C 0,6 C 0,0 km/h (0 Bft)
17.01.2018 00:00 22,3 C 0,6 C 57 % 96 % 996,5 hPa 1,4 l/m 2,7 km/h (1 Bft) W 0,00 h 0,0 UV-I 0 W/m 0,0 C 0,6 C 5,2 km/h (1 Bft)
17.01.2018 01:00 22,3 C 0,3 C 58 % 96 % 996,2 hPa 0,4 l/m 2,2 km/h (1 Bft) W 0,00 h 0,0 UV-I 0 W/m -0,2 C 0,3 C 4,2 km/h (1 Bft)
17.01.2018 02:00 22,2 C 0,3 C 58 % 97 % 995,9 hPa 0,0 l/m 1,6 km/h (1 Bft) W 0,00 h 0,0 UV-I 0 W/m -0,2 C 0,3 C 3,7 km/h (1 Bft)
17.01.2018 03:00 22,1 C 0,4 C 59 % 96 % 995,5 hPa 0,0 l/m 1,7 km/h (1 Bft) W 0,00 h 0,0 UV-I 0 W/m -0,2 C 0,4 C 3,7 km/h (1 Bft)
17.01.2018 04:00 22,1 C 0,3 C 59 % 96 % 994,8 hPa 0,0 l/m 1,4 km/h (1 Bft) W 0,00 h 0,0 UV-I 0 W/m -0,2 C 0,3 C 3,1 km/h (1 Bft)
17.01.2018 05:00 22,0 C 0,4 C 60 % 96 % 994,5 hPa 1,2 l/m 1,3 km/h (1 Bft) W 0,00 h 0,0 UV-I 0 W/m -0,2 C 0,4 C 2,6 km/h (1 Bft)
17.01.2018 06:00 22,1 C 0,4 C 59 % 97 % 994,1 hPa 0,4 l/m 0,0 km/h (0 Bft) N 0,00 h 0,0 UV-I 0 W/m -0,0 C 0,4 C 0,0 km/h (0 Bft)
17.01.2018 07:00 22,3 C 0,5 C 58 % 96 % 994,7 hPa 0,0 l/m 0,0 km/h (0 Bft) N 0,00 h 0,0 UV-I 0 W/m 0,0 C 0,5 C 0,0 km/h (0 Bft)
17.01.2018 08:00 22,4 C 0,4 C 59 % 96 % 995,7 hPa 0,0 l/m 3,1 km/h (1 Bft) W 0,00 h 0,0 UV-I 14 W/m -0,2 C 0,2 C 6,0 km/h (2 Bft)
17.01.2018 09:00 22,5 C 0,4 C 59 % 95 % 996,6 hPa 0,0 l/m 4,2 km/h (1 Bft) W 0,00 h 0,0 UV-I 56 W/m -0,3 C 0,2 C 8,0 km/h (2 Bft)
17.01.2018 10:00 22,5 C 0,7 C 58 % 93 % 997,7 hPa 0,0 l/m 4,9 km/h (1 Bft) W-SW 0,00 h 0,0 UV-I 55 W/m -0,3 C 0,2 C 9,1 km/h (2 Bft)
17.01.2018 11:00 22,6 C 0,7 C 57 % 92 % 998,5 hPa 0,0 l/m 5,2 km/h (1 Bft) SW 0,15 h 0,6 UV-I 104 W/m -0,4 C 0,0 C 10,3 km/h (2 Bft)
17.01.2018 12:00 22,6 C 0,4 C 57 % 93 % 999,7 hPa 0,0 l/m 11,4 km/h (2 Bft) W 0,08 h 0,5 UV-I 98 W/m -0,6 C -3,9 C 18,8 km/h (3 Bft)
17.01.2018 13:00 22,6 C 0,3 C 57 % 90 % 1001,0 hPa 0,0 l/m 11,9 km/h (2 Bft) W-SW 0,00 h 0,5 UV-I 87 W/m -1,1 C -4,4 C 18,7 km/h (3 Bft)
17.01.2018 14:00 22,7 C 0,1 C 58 % 90 % 1002,0 hPa 0,0 l/m 9,3 km/h (2 Bft) W-SW 0,00 h 0,5 UV-I 58 W/m -1,4 C -2,9 C 15,2 km/h (3 Bft)
17.01.2018 15:00 22,6 C -0,1 C 58 % 90 % 1003,2 hPa 0,0 l/m 11,9 km/h (2 Bft) W-SW 0,00 h 0,0 UV-I 56 W/m -1,6 C -4,8 C 18,9 km/h (3 Bft)
17.01.2018 16:00 22,5 C -0,3 C 58 % 91 % 1004,0 hPa 0,0 l/m 8,3 km/h (2 Bft) W-SW 0,00 h 0,0 UV-I 11 W/m -1,6 C -2,7 C 13,6 km/h (3 Bft)
17.01.2018 17:00 22,4 C -0,4 C 58 % 93 % 1004,5 hPa 0,2 l/m 7,5 km/h (2 Bft) W-SW 0,00 h 0,0 UV-I 0 W/m -1,4 C -2,0 C 13,2 km/h (3 Bft)
17.01.2018 18:00 22,3 C -0,3 C 61 % 95 % 1004,8 hPa 0,2 l/m 9,5 km/h (2 Bft) W-SW 0,00 h 0,0 UV-I 0 W/m -1,1 C -3,2 C 16,0 km/h (3 Bft)
17.01.2018 19:00 22,2 C -0,2 C 61 % 94 % 1004,9 hPa 0,2 l/m 10,8 km/h (2 Bft) W-SW 0,00 h 0,0 UV-I 0 W/m -1,0 C -4,3 C 18,2 km/h (3 Bft)
17.01.2018 20:00 22,4 C -0,0 C 60 % 95 % 1005,8 hPa 0,0 l/m 14,2 km/h (3 Bft) W 0,00 h 0,0 UV-I 0 W/m -0,7 C -6,3 C 21,9 km/h (4 Bft)
17.01.2018 21:00 22,5 C -0,0 C 60 % 94 % 1007,0 hPa 0,2 l/m 14,5 km/h (3 Bft) W 0,00 h 0,0 UV-I 0 W/m -0,9 C -6,4 C 22,8 km/h (4 Bft)
17.01.2018 22:00 22,7 C 0,1 C 60 % 90 % 1008,2 hPa 0,0 l/m 14,0 km/h (3 Bft) W 0,00 h 0,0 UV-I 0 W/m -1,3 C -6,0 C 22,1 km/h (4 Bft)
17.01.2018 23:00 22,8 C 0,1 C 60 % 90 % 1009,0 hPa 0,0 l/m 12,5 km/h (3 Bft) W-SW 0,00 h 0,0 UV-I 0 W/m -1,3 C -5,1 C 19,6 km/h (3 Bft)
18.01.2018 00:00 22,6 C 0,2 C 61 % 91 % 1009,9 hPa 0,0 l/m 12,0 km/h (2 Bft) W-SW 0,00 h 0,0 UV-I 0 W/m -1,2 C -4,5 C 18,4 km/h (3 Bft)
18.01.2018 01:00 22,4 C 0,1 C 61 % 91 % 1010,1 hPa 0,0 l/m 8,6 km/h (2 Bft) W-SW 0,00 h 0,0 UV-I 0 W/m -1,2 C -2,3 C 14,0 km/h (3 Bft)
18.01.2018 02:00 22,3 C -0,2 C 62 % 92 % 1010,1 hPa 0,0 l/m 7,2 km/h (2 Bft) SW 0,00 h 0,0 UV-I 0 W/m -1,3 C -1,5 C 12,6 km/h (3 Bft)
18.01.2018 03:00 22,2 C -0,1 C 62 % 93 % 1010,0 hPa 0,0 l/m 5,9 km/h (2 Bft) SW 0,00 h 0,0 UV-I 0 W/m -1,1 C -0,7 C 10,6 km/h (2 Bft)
18.01.2018 04:00 22,2 C 0,0 C 63 % 94 % 1009,2 hPa 0,0 l/m 8,3 km/h (2 Bft) SW 0,00 h 0,0 UV-I 0 W/m -0,9 C -2,2 C 14,0 km/h (3 Bft)
18.01.2018 05:00 22,2 C 0,2 C 63 % 94 % 1008,5 hPa 0,0 l/m 7,3 km/h (2 Bft) S 0,00 h 0,0 UV-I 0 W/m -0,7 C -1,3 C 13,2 km/h (3 Bft)
18.01.2018 06:00 22,2 C 0,2 C 62 % 94 % 1007,2 hPa 0,0 l/m 7,5 km/h (2 Bft) S 0,00 h 0,0 UV-I 0 W/m -0,6 C -1,2 C 12,3 km/h (3 Bft)
18.01.2018 07:00 22,4 C 0,3 C 61 % 95 % 1005,5 hPa 0,2 l/m 10,4 km/h (2 Bft) S-SO 0,00 h 0,0 UV-I 0 W/m -0,3 C -3,3 C 16,4 km/h (3 Bft)
18.01.2018 08:00 22,4 C 0,6 C 60 % 96 % 1003,9 hPa 0,2 l/m 12,2 km/h (2 Bft) S 0,00 h 0,0 UV-I 11 W/m 0,0 C -4,3 C 18,7 km/h (3 Bft)
18.01.2018 09:00 22,3 C 0,7 C 60 % 96 % 1002,0 hPa 0,8 l/m 10,7 km/h (2 Bft) S 0,00 h 0,0 UV-I 19 W/m 0,1 C -3,0 C 17,0 km/h (3 Bft)
18.01.2018 10:00 22,3 C 0,9 C 58 % 96 % 1000,5 hPa 0,2 l/m 10,8 km/h (2 Bft) S 0,00 h 0,0 UV-I 38 W/m 0,3 C -2,9 C 16,8 km/h (3 Bft)
18.01.2018 11:00 22,2 C 1,2 C 56 % 96 % 999,0 hPa 0,4 l/m 9,9 km/h (2 Bft) S 0,00 h 0,0 UV-I 36 W/m 0,6 C -1,9 C 15,3 km/h (3 Bft)
18.01.2018 12:00 22,1 C 1,8 C 55 % 96 % 996,9 hPa 0,2 l/m 11,2 km/h (2 Bft) S 0,00 h 0,5 UV-I 32 W/m 1,2 C -2,2 C 19,1 km/h (3 Bft)
18.01.2018 13:00 22,2 C 3,3 C 55 % 96 % 995,1 hPa 0,4 l/m 16,2 km/h (3 Bft) SW 0,00 h 0,5 UV-I 73 W/m 2,6 C -3,2 C 28,9 km/h (5 Bft)
18.01.2018 14:00 22,4 C 4,3 C 54 % 93 % 995,1 hPa 1,0 l/m 19,1 km/h (3 Bft) W-SW 0,00 h 0,5 UV-I 52 W/m 3,3 C -3,3 C 33,2 km/h (5 Bft)
18.01.2018 15:00 22,4 C 4,8 C 54 % 92 % 995,7 hPa 0,2 l/m 21,9 km/h (4 Bft) W-SW 0,00 h 0,0 UV-I 40 W/m 3,6 C -3,9 C 36,4 km/h (5 Bft)
18.01.2018 16:00 22,5 C 4,8 C 55 % 90 % 997,1 hPa 0,4 l/m 19,4 km/h (3 Bft) W-SW 0,00 h 0,0 UV-I 23 W/m 3,3 C -2,9 C 30,8 km/h (5 Bft)
18.01.2018 17:00 22,7 C 4,2 C 55 % 81 % 998,4 hPa 0,0 l/m 19,7 km/h (3 Bft) W 0,00 h 0,0 UV-I 0 W/m 1,3 C -3,8 C 30,6 km/h (5 Bft)
18.01.2018 18:00 22,7 C 3,5 C 57 % 79 % 999,7 hPa 0,0 l/m 12,5 km/h (3 Bft) W-NW 0,00 h 0,0 UV-I 0 W/m 0,2 C -1,2 C 20,5 km/h (4 Bft)
18.01.2018 19:00 22,6 C 3,1 C 57 % 79 % 1000,4 hPa 0,0 l/m 14,0 km/h (3 Bft) W 0,00 h 0,0 UV-I 0 W/m -0,3 C -2,5 C 21,9 km/h (4 Bft)
18.01.2018 20:00 22,6 C 2,8 C 58 % 77 % 1001,2 hPa 0,0 l/m 15,7 km/h (3 Bft) W 0,00 h 0,0 UV-I 0 W/m -0,7 C -3,7 C 24,0 km/h (4 Bft)
18.01.2018 21:00 22,6 C 2,6 C 58 % 78 % 1002,4 hPa 0,0 l/m 12,0 km/h (2 Bft) W-SW 0,00 h 0,0 UV-I 0 W/m -0,8 C -1,8 C 19,4 km/h (3 Bft)
18.01.2018 22:00 22,6 C 2,0 C 58 % 82 % 1002,9 hPa 0,0 l/m 11,5 km/h (2 Bft) W-SW 0,00 h 0,0 UV-I 0 W/m -0,7 C -2,2 C 18,4 km/h (3 Bft)
18.01.2018 23:00 22,6 C 2,2 C 59 % 82 % 1003,3 hPa 0,0 l/m 10,2 km/h (2 Bft) W-SW 0,00 h 0,0 UV-I 0 W/m -0,5 C -1,1 C 16,8 km/h (3 Bft)
19.01.2018 00:00 22,5 C 1,7 C 60 % 83 % 1003,4 hPa 0,0 l/m 5,3 km/h (1 Bft) W-SW 0,00 h 0,0 UV-I 0 W/m -0,9 C 1,0 C 9,0 km/h (2 Bft)
19.01.2018 01:00 22,4 C 1,0 C 60 % 85 % 1003,6 hPa 0,0 l/m 0,2 km/h (0 Bft) S 0,00 h 0,0 UV-I 0 W/m -1,2 C 1,0 C 0,6 km/h (0 Bft)
19.01.2018 02:00 22,3 C 0,8 C 60 % 88 % 1003,7 hPa 0,0 l/m 0,0 km/h (0 Bft) N 0,00 h 0,0 UV-I 0 W/m -1,0 C 0,8 C 0,0 km/h (0 Bft)
19.01.2018 03:00 22,2 C 0,7 C 60 % 89 % 1003,8 hPa 0,0 l/m 0,3 km/h (0 Bft) S-SW 0,00 h 0,0 UV-I 0 W/m -0,9 C 0,7 C 0,6 km/h (0 Bft)
19.01.2018 04:00 22,2 C 0,7 C 61 % 91 % 1003,8 hPa 0,0 l/m 0,6 km/h (0 Bft) S-SW 0,00 h 0,0 UV-I 0 W/m -0,6 C 0,7 C 1,3 km/h (1 Bft)
19.01.2018 05:00 22,2 C 0,5 C 61 % 93 % 1003,9 hPa 0,2 l/m 0,1 km/h (0 Bft) S-SO 0,00 h 0,0 UV-I 0 W/m -0,5 C 0,5 C 0,2 km/h (0 Bft)
19.01.2018 06:00 22,3 C 0,6 C 62 % 94 % 1004,0 hPa 1,0 l/m 1,1 km/h (0 Bft) W-NW 0,00 h 0,0 UV-I 0 W/m -0,2 C 0,6 C 2,5 km/h (1 Bft)
19.01.2018 07:00 22,5 C 0,5 C 61 % 95 % 1005,0 hPa 1,4 l/m 3,3 km/h (1 Bft) NW 0,00 h 0,0 UV-I 0 W/m -0,2 C 0,5 C 5,5 km/h (1 Bft)
19.01.2018 08:00 22,4 C 0,4 C 59 % 96 % 1006,3 hPa 0,2 l/m 0,1 km/h (0 Bft) NW 0,00 h 0,0 UV-I 51 W/m -0,2 C 0,4 C 0,2 km/h (0 Bft)
19.01.2018 09:00 18,1 C 0,6 C 63 % 96 % 1007,5 hPa 1,0 l/m 1,9 km/h (1 Bft) W-SW 0,00 h 0,0 UV-I 25 W/m 0,0 C 0,5 C 4,2 km/h (1 Bft)
19.01.2018 10:00 21,9 C 1,1 C 61 % 95 % 1008,3 hPa 0,0 l/m 9,3 km/h (2 Bft) W-SW 0,12 h 0,5 UV-I 97 W/m 0,4 C -1,6 C 16,4 km/h (3 Bft)
19.01.2018 11:00 22,4 C 1,2 C 58 % 93 % 1008,6 hPa 0,0 l/m 9,0 km/h (2 Bft) W-SW 0,00 h 0,6 UV-I 76 W/m 0,3 C -1,2 C 15,7 km/h (3 Bft)
19.01.2018 12:00 22,6 C 1,4 C 57 % 92 % 1009,1 hPa 0,0 l/m 6,8 km/h (2 Bft) SW 0,00 h 0,5 UV-I 64 W/m 0,2 C 0,2 C 12,6 km/h (3 Bft)
19.01.2018 13:00 22,6 C 1,5 C 55 % 90 % 1009,4 hPa 0,2 l/m 10,6 km/h (2 Bft) W-SW 0,15 h 0,6 UV-I 104 W/m 0,1 C -2,1 C 18,6 km/h (3 Bft)
19.01.2018 14:00 22,5 C 1,3 C 56 % 91 % 1009,5 hPa 0,0 l/m 7,5 km/h (2 Bft) W-SW 0,00 h 0,0 UV-I 35 W/m 0,1 C -0,4 C 13,5 km/h (3 Bft)
19.01.2018 15:00 22,4 C 1,2 C 56 % 92 % 1010,0 hPa 0,0 l/m 9,5 km/h (2 Bft) W-SW 0,00 h 0,0 UV-I 27 W/m 0,1 C -1,6 C 15,9 km/h (3 Bft)
19.01.2018 16:00 22,4 C 1,0 C 56 % 93 % 1010,7 hPa 0,0 l/m 5,0 km/h (1 Bft) W 0,00 h 0,0 UV-I 6 W/m 0,1 C 0,4 C 9,7 km/h (2 Bft)
19.01.2018 17:00 22,5 C 1,0 C 56 % 93 % 1011,2 hPa 0,0 l/m 3,4 km/h (1 Bft) SW 0,00 h 0,0 UV-I 0 W/m -0,0 C 0,7 C 6,9 km/h (2 Bft)
19.01.2018 18:00 22,7 C 0,8 C 58 % 94 % 1011,3 hPa 0,4 l/m 2,3 km/h (1 Bft) SW 0,00 h 0,0 UV-I 0 W/m -0,1 C 0,7 C 5,2 km/h (1 Bft)
19.01.2018 19:00 22,7 C 0,5 C 58 % 94 % 1011,3 hPa 0,0 l/m 2,1 km/h (1 Bft) S 0,00 h 0,0 UV-I 0 W/m -0,3 C 0,5 C 3,9 km/h (1 Bft)
19.01.2018 20:00 22,6 C 0,3 C 60 % 93 % 1011,4 hPa 0,0 l/m 2,0 km/h (1 Bft) S-SW 0,00 h 0,0 UV-I 0 W/m -0,7 C 0,2 C 3,8 km/h (1 Bft)
19.01.2018 21:00 22,6 C -0,1 C 61 % 93 % 1011,5 hPa 0,0 l/m 0,0 km/h (0 Bft) N 0,00 h 0,0 UV-I 0 W/m -1,1 C -0,1 C 0,0 km/h (0 Bft)
19.01.2018 22:00 22,8 C -0,5 C 62 % 93 % 1011,5 hPa 0,0 l/m 0,2 km/h (0 Bft) SO 0,00 h 0,0 UV-I 0 W/m -1,4 C -0,5 C 0,3 km/h (0 Bft)
19.01.2018 23:00 22,9 C -0,7 C 61 % 94 % 1011,7 hPa 0,0 l/m 0,6 km/h (0 Bft) S-SO 0,00 h 0,0 UV-I 0 W/m -1,5 C -0,7 C 1,5 km/h (1 Bft)
20.01.2018 00:00 22,7 C -0,8 C 62 % 94 % 1011,8 hPa 0,0 l/m 0,0 km/h (0 Bft) N 0,00 h 0,0 UV-I 0 W/m -1,6 C -0,8 C 0,1 km/h (0 Bft)
20.01.2018 01:00 22,5 C -0,7 C 62 % 95 % 1011,9 hPa 0,0 l/m 2,0 km/h (1 Bft) S 0,00 h 0,0 UV-I 0 W/m -1,4 C -0,7 C 4,7 km/h (1 Bft)
20.01.2018 02:00 22,3 C -0,3 C 62 % 95 % 1012,1 hPa 0,0 l/m 3,7 km/h (1 Bft) SW 0,00 h 0,0 UV-I 0 W/m -1,0 C -0,6 C 7,4 km/h (2 Bft)
20.01.2018 03:00 22,2 C -0,2 C 61 % 94 % 1012,0 hPa 0,0 l/m 3,7 km/h (1 Bft) S 0,00 h 0,0 UV-I 0 W/m -1,0 C -0,2 C 6,7 km/h (2 Bft)
20.01.2018 04:00 22,2 C -0,3 C 61 % 95 % 1011,5 hPa 0,0 l/m 5,7 km/h (1 Bft) S 0,00 h 0,0 UV-I 0 W/m -1,0 C -0,7 C 9,0 km/h (2 Bft)
20.01.2018 05:00 22,1 C -0,1 C 61 % 94 % 1011,4 hPa 0,0 l/m 6,1 km/h (2 Bft) S 0,00 h 0,0 UV-I 0 W/m -0,9 C -0,7 C 10,7 km/h (2 Bft)
20.01.2018 06:00 22,1 C -0,1 C 60 % 93 % 1011,0 hPa 0,0 l/m 6,2 km/h (2 Bft) S 0,00 h 0,0 UV-I 0 W/m -1,1 C -0,7 C 10,5 km/h (2 Bft)
20.01.2018 07:00 22,2 C -0,2 C 60 % 93 % 1010,6 hPa 0,0 l/m 6,9 km/h (2 Bft) S 0,00 h 0,0 UV-I 0 W/m -1,2 C -1,0 C 10,9 km/h (2 Bft)
20.01.2018 08:00 22,2 C -0,2 C 59 % 94 % 1010,5 hPa 0,0 l/m 6,7 km/h (2 Bft) S 0,00 h 0,0 UV-I 6 W/m -1,0 C -1,1 C 11,1 km/h (2 Bft)
20.01.2018 09:00 22,2 C 0,0 C 60 % 95 % 1010,5 hPa 0,0 l/m 2,3 km/h (1 Bft) S-SW 0,00 h 0,0 UV-I 37 W/m -0,7 C -0,0 C 5,4 km/h (1 Bft)
20.01.2018 10:00 22,2 C 0,3 C 56 % 95 % 1010,4 hPa 0,0 l/m 2,7 km/h (1 Bft) S 0,00 h 0,5 UV-I 65 W/m -0,4 C 0,3 C 5,5 km/h (1 Bft)
20.01.2018 11:00 22,3 C 0,8 C 57 % 93 % 1010,0 hPa 0,2 l/m 1,1 km/h (1 Bft) S 0,00 h 0,5 UV-I 83 W/m -0,3 C 0,8 C 2,6 km/h (1 Bft)
20.01.2018 12:00 22,3 C 0,9 C 56 % 92 % 1009,1 hPa 0,2 l/m 2,1 km/h (1 Bft) S 0,05 h 0,6 UV-I 78 W/m -0,3 C 0,9 C 4,4 km/h (1 Bft)
20.01.2018 13:00 22,4 C 1,1 C 55 % 91 % 1008,0 hPa 0,0 l/m 2,1 km/h (1 Bft) S 0,05 h 0,6 UV-I 119 W/m -0,2 C 1,0 C 4,8 km/h (1 Bft)
20.01.2018 14:00 22,6 C 1,0 C 55 % 91 % 1007,1 hPa 0,0 l/m 3,2 km/h (1 Bft) S 0,00 h 0,5 UV-I 60 W/m -0,4 C 0,9 C 6,3 km/h (2 Bft)
20.01.2018 15:00 22,5 C 0,8 C 56 % 93 % 1006,1 hPa 0,0 l/m 2,8 km/h (1 Bft) S-SO 0,00 h 0,0 UV-I 28 W/m -0,2 C 0,8 C 4,9 km/h (1 Bft)
20.01.2018 16:00 22,3 C 0,7 C 53 % 94 % 1005,0 hPa 0,0 l/m 2,9 km/h (1 Bft) SO 0,00 h 0,0 UV-I 11 W/m -0,2 C 0,7 C 5,2 km/h (1 Bft)
20.01.2018 17:00 22,3 C 0,6 C 51 % 93 % 1003,9 hPa 0,0 l/m 2,0 km/h (1 Bft) SO 0,00 h 0,0 UV-I 0 W/m -0,4 C 0,6 C 4,2 km/h (1 Bft)
20.01.2018 18:00 22,4 C 0,4 C 53 % 93 % 1002,9 hPa 0,0 l/m 0,9 km/h (0 Bft) O-SO 0,00 h 0,0 UV-I 0 W/m -0,6 C 0,4 C 2,6 km/h (1 Bft)
20.01.2018 19:00 22,4 C 0,5 C 55 % 94 % 1001,7 hPa 0,0 l/m 0,9 km/h (0 Bft) O-SO 0,00 h 0,0 UV-I 0 W/m -0,4 C 0,5 C 2,7 km/h (1 Bft)
20.01.2018 20:00 22,5 C 0,3 C 56 % 95 % 1001,3 hPa 0,0 l/m 0,1 km/h (0 Bft) O 0,00 h 0,0 UV-I 0 W/m -0,5 C 0,3 C 0,5 km/h (0 Bft)
20.01.2018 21:00 22,5 C 0,2 C 57 % 95 % 1001,4 hPa 0,0 l/m 0,1 km/h (0 Bft) O-NO 0,00 h 0,0 UV-I 0 W/m -0,5 C 0,2 C 0,6 km/h (0 Bft)
20.01.2018 22:00 22,5 C -0,0 C 57 % 95 % 1000,8 hPa 0,0 l/m 0,1 km/h (0 Bft) O-NO 0,00 h 0,0 UV-I 0 W/m -0,7 C -0,0 C 0,6 km/h (0 Bft)
20.01.2018 23:00 22,5 C -0,1 C 58 % 96 % 1000,4 hPa 0,0 l/m 0,0 km/h (0 Bft) N 0,00 h 0,0 UV-I 0 W/m -0,7 C -0,1 C 0,1 km/h (0 Bft)
21.01.2018 00:00 22,4 C -0,2 C 59 % 96 % 1000,3 hPa 0,0 l/m 0,1 km/h (0 Bft) NO 0,00 h 0,0 UV-I 0 W/m -0,8 C -0,2 C 0,7 km/h (0 Bft)
21.01.2018 01:00 22,2 C -0,3 C 59 % 96 % 1000,6 hPa 0,0 l/m 0,1 km/h (0 Bft) NO 0,00 h 0,0 UV-I 0 W/m -0,8 C -0,3 C 0,2 km/h (0 Bft)
21.01.2018 02:00 22,2 C -0,2 C 60 % 96 % 1001,4 hPa 0,0 l/m 0,0 km/h (0 Bft) N 0,00 h 0,0 UV-I 0 W/m -0,8 C -0,2 C 0,0 km/h (0 Bft)
21.01.2018 03:00 22,2 C -0,2 C 60 % 96 % 1002,2 hPa 0,0 l/m 0,0 km/h (0 Bft) N 0,00 h 0,0 UV-I 0 W/m -0,8 C -0,2 C 0,0 km/h (0 Bft)
21.01.2018 04:00 22,1 C -0,2 C 60 % 96 % 1003,0 hPa 0,0 l/m 0,0 km/h (0 Bft) N 0,00 h 0,0 UV-I 0 W/m -0,8 C -0,2 C 0,0 km/h (0 Bft)
21.01.2018 05:00 22,1 C -0,2 C 60 % 96 % 1003,8 hPa 0,0 l/m 0,0 km/h (0 Bft) N 0,00 h 0,0 UV-I 0 W/m -0,8 C -0,2 C 0,0 km/h (0 Bft)
21.01.2018 06:00 22,2 C -0,3 C 60 % 96 % 1004,5 hPa 0,0 l/m 0,0 km/h (0 Bft) N 0,00 h 0,0 UV-I 0 W/m -0,9 C -0,3 C 0,0 km/h (0 Bft)
21.01.2018 07:00 22,4 C -0,2 C 60 % 96 % 1005,5 hPa 0,0 l/m 0,0 km/h (0 Bft) N 0,00 h 0,0 UV-I 0 W/m -0,8 C -0,2 C 0,0 km/h (0 Bft)
21.01.2018 08:00 22,4 C -0,2 C 59 % 96 % 1006,6 hPa 0,0 l/m 0,0 km/h (0 Bft) N 0,00 h 0,0 UV-I 0 W/m -0,7 C -0,2 C 0,0 km/h (0 Bft)
21.01.2018 09:00 22,4 C -0,0 C 59 % 97 % 1008,4 hPa 0,0 l/m 0,0 km/h (0 Bft) N 0,00 h 0,0 UV-I 9 W/m -0,4 C -0,0 C 0,0 km/h (0 Bft)
21.01.2018 10:00 22,5 C 0,5 C 59 % 97 % 1010,3 hPa 0,0 l/m 0,2 km/h (0 Bft) N-NO 0,00 h 0,0 UV-I 28 W/m 0,1 C 0,5 C 0,7 km/h (0 Bft)
21.01.2018 11:00 22,8 C 1,5 C 59 % 95 % 1011,7 hPa 0,6 l/m 3,4 km/h (1 Bft) N 0,00 h 0,0 UV-I 28 W/m 0,8 C 1,4 C 6,4 km/h (2 Bft)
21.01.2018 12:00 22,8 C 1,2 C 60 % 92 % 1013,1 hPa 0,2 l/m 3,5 km/h (1 Bft) N-NW 0,00 h 0,0 UV-I 19 W/m 0,1 C 1,1 C 6,9 km/h (2 Bft)
21.01.2018 13:00 22,9 C 1,2 C 57 % 90 % 1014,2 hPa 1,2 l/m 5,9 km/h (2 Bft) NW 0,02 h 0,0 UV-I 46 W/m -0,2 C 0,4 C 10,0 km/h (2 Bft)
21.01.2018 14:00 22,8 C 1,0 C 52 % 89 % 1015,2 hPa 1,4 l/m 7,5 km/h (2 Bft) N-NW 0,22 h 0,6 UV-I 112 W/m -0,7 C -0,7 C 12,5 km/h (3 Bft)
21.01.2018 15:00 22,7 C 0,5 C 51 % 89 % 1016,6 hPa 2,2 l/m 4,1 km/h (1 Bft) NW 0,00 h 0,0 UV-I 59 W/m -1,0 C -0,1 C 7,4 km/h (2 Bft)
21.01.2018 16:00 22,7 C 0,2 C 54 % 90 % 1017,6 hPa 0,6 l/m 0,0 km/h (0 Bft) N 0,00 h 0,0 UV-I 18 W/m -1,3 C 0,2 C 0,0 km/h (0 Bft)
21.01.2018 17:00 22,7 C -0,9 C 55 % 89 % 1018,4 hPa 0,8 l/m 0,0 km/h (0 Bft) N 0,00 h 0,0 UV-I 0 W/m -2,4 C -0,9 C 0,0 km/h (0 Bft)
21.01.2018 18:00 22,7 C -1,9 C 60 % 92 % 1019,0 hPa 0,0 l/m 0,1 km/h (0 Bft) O-NO 0,00 h 0,0 UV-I 0 W/m -3,1 C -1,9 C 0,3 km/h (0 Bft)
21.01.2018 19:00 22,8 C -2,1 C 60 % 93 % 1018,9 hPa 0,0 l/m 0,8 km/h (0 Bft) O-NO 0,00 h 0,0 UV-I 0 W/m -3,1 C -2,1 C 1,6 km/h (1 Bft)
21.01.2018 20:00 22,7 C -2,8 C 60 % 93 % 1019,3 hPa 0,0 l/m 0,1 km/h (0 Bft) O-NO 0,00 h 0,0 UV-I 0 W/m -3,7 C -2,8 C 0,2 km/h (0 Bft)
21.01.2018 21:00 22,7 C -2,7 C 61 % 94 % 1019,4 hPa 0,0 l/m 1,2 km/h (1 Bft) O 0,00 h 0,0 UV-I 0 W/m -3,5 C -2,7 C 2,4 km/h (1 Bft)
21.01.2018 22:00 22,7 C -2,6 C 61 % 95 % 1018,9 hPa 0,0 l/m 0,8 km/h (0 Bft) O 0,00 h 0,0 UV-I 0 W/m -3,3 C -2,6 C 2,0 km/h (1 Bft)
21.01.2018 23:00 22,7 C -3,4 C 61 % 94 % 1018,2 hPa 0,0 l/m 0,2 km/h (0 Bft) O-NO 0,00 h 0,0 UV-I 0 W/m -4,2 C -3,4 C 0,5 km/h (0 Bft)
Min-Datum _ 19.01.18 21.01.18 19.01.18 15.01.18 16.01.18 - 15.01.18 - - - - 21.01.18 17.01.18 15.01.18
_ Min-Zeit 09:16 23:57 08:54 13:52 14:59 - 00:00 - - - - 23:57 21:25 00:00
Minimum _ 15,0 C -3,8 C 40 % 71 % 993,2 hPa - 0,0 km/h (0 Bft) - - - - -4,6 C -12,1 C 0,0 km/h (0 Bft)
Max-Datum _ 19.01.18 18.01.18 19.01.18 16.01.18 15.01.18 21.01.18 18.01.18 - 15.01.18 15.01.18 15.01.18 18.01.18 16.01.18 18.01.18
_ Max-Zeit 22:37 16:02 09:20 08:58 00:00 15:02 14:30 - 09:46 13:37 13:38 15:21 13:50 14:19
Maximum _ 22,9 C 5,2 C 74 % 97 % 1024,7 hPa 2,2 l/m 37,0 km/h
W-SW (5 Bft)
- 0,02 h 0,9 UV-I 369 W/m 3,9 C 4,4 C 57,9 km/h
W-SW (7 Bft)
Durchschnitt _ 22,4 C 0,6 C 58 % 92 % 1006,3 hPa #32,2 l/m 5,9 km/h (2 Bft) W-SW #3:30 h 0,6 UV-I 58 W/m -0,6 C -1,0 C 9,9 km/h (2 Bft)